COSMOS 2334

导读 | 豆包AI

COSMOS 2334(宇宙2334)是独联体(CIS)于1996年9月5日发射的军用卫星,属于苏联/俄罗斯“宇宙”(COSMOS)系列卫星。该系列卫星涵盖侦察、导航、科学试验等多种军事用途,通过统一命名模糊卫星任务属性,提升保密性。作为冷战后独联体时期发射的卫星,它延续了苏联航天的技术路线,服役结束后已成为空间碎片,目前已停止工作。

Basic Information
目录编号:
24304
目录名称:
COSMOS 2334
国际标识:
1996-052A
轨道中心:
EARTH
卫星名称:
COSMOS 2334
卫星全名:
--
卫星状态:
在轨 (已飞行10827 天)
发射日期:
1996-09-05 UTC
国别 :
俄罗斯(独联体) (CIS)
星等 :
--
Orbit Information
数据来源 国际轨道数据 AOE轨道数据
星历时间 2026-04-28T19:05:55+0800
10小时前
查看轨道信息
2026-04-23T17:00:00+0800
5天前
查看轨道信息
半长轴 7364.07km 7364.072km
偏心率 0.0030824 0.003124
轨道倾角 82.931° 82.926°
近地点辐角 42.627° 56.957°
升交点赤经 117.565° 121.331°
平近点角 79.328° 118.180°
近地点 963.233km 962.929km
远地点 1008.633km 1008.941km
周期 104.818分钟 104.818分钟
每日圈数 13.738078 13.738071
Detailed Information
使用方式:
暂无
2D Orbit Map
3D Orbit Map
Orbit Altitude Analysis Chart
Orbit Inclination Analysis Chart
Orbit Comprehensive Analysis Chart
View Comprehensive Chart